Location: Augustenthal
(51.7167°N, 10.2833°E)
Time: 17:09:00
(UTC+00:00)

ISS - Pass Details

Date: 18 May 2021
Orbit: 417 x 422 km, 51.6° (Epoch: 22 June)

Event Time Altitude Azimuth Distance (km) Brightness Sun altitude
Rises 20:52:24 0° 253° (WSW) 2,362 0.3 -12.0°
Reaches altitude 10° 20:54:30 10° 251° (WSW) 1,500 -0.8 -12.2°
Maximum altitude 20:57:52 74° 166° (SSE) 442 -3.9 -12.5°
Drops below altitude 10° 21:01:14 10° 82° (E) 1,507 -1.2 -12.8°
Sets 21:03:20 0° 81° (E) 2,373 -0.2 -12.9°
Enters shadow 21:03:27 - 81° (E) 2,420 -0.1 -12.9°
